�������r�C�����j�^�v���󋵏��
Date,Time,5�C6���@���p�r�C��,����,����(m/s)
2021/07/02,00:00,4.1,�k�k��,0.8
2021/07/02,00:10,4.0,-,CALM
2021/07/02,00:20,4.0,�k,0.6
2021/07/02,00:30,4.0,�k,0.9
2021/07/02,00:40,3.8,�k,0.9
2021/07/02,00:50,4.0,�k,0.8
2021/07/02,01:00,3.9,�k,1.5
2021/07/02,01:10,4.0,�k,1.5
2021/07/02,01:20,4.0,�k�k��,1.2
2021/07/02,01:30,3.8,�k,1.1
2021/07/02,01:40,3.9,�k�k��,1.2
2021/07/02,01:50,3.7,�k�k��,1.5
2021/07/02,02:00,3.9,�k��,1.1
2021/07/02,02:10,4.0,���k��,0.8
2021/07/02,02:20,3.7,�k��,0.9
2021/07/02,02:30,3.8,�k�k��,1.1
2021/07/02,02:40,3.8,�k��,0.9
2021/07/02,02:50,3.9,�k�k��,1.5
2021/07/02,03:00,3.8,�k�k��,1.5
2021/07/02,03:10,3.9,�k�k��,1.4
2021/07/02,03:20,3.8,�k,2.2
2021/07/02,03:30,3.9,�k�k��,1.5
2021/07/02,03:40,3.9,-,CALM
2021/07/02,03:50,3.8,�k�k��,1.5
2021/07/02,04:00,4.0,�k,2.0
2021/07/02,04:10,3.8,�k,2.6
2021/07/02,04:20,4.0,�k�k��,2.0
2021/07/02,04:30,3.9,�k�k��,3.0
2021/07/02,04:40,3.8,�k�k��,2.6
2021/07/02,04:50,3.8,�k��,2.0
2021/07/02,05:00,3.9,�k��,1.5
2021/07/02,05:10,3.8,�k�k��,2.2
2021/07/02,05:20,3.7,�k�k��,2.3
2021/07/02,05:30,3.9,�k�k��,2.2
2021/07/02,05:40,3.8,�k�k��,1.5
2021/07/02,05:50,3.8,�k�k��,1.5
2021/07/02,06:00,3.8,�k,1.9
2021/07/02,06:10,4.0,�k,1.1
2021/07/02,06:20,3.9,�k�k��,1.1
2021/07/02,06:30,4.0,�k,1.2
2021/07/02,06:40,3.8,�k,0.6
2021/07/02,06:50,3.8,�k�k��,0.9
2021/07/02,07:00,4.0,�k,1.2
2021/07/02,07:10,3.9,�k�k��,1.2
2021/07/02,07:20,3.9,�k�k��,2.3
2021/07/02,07:30,4.0,�k�k��,1.7
2021/07/02,07:40,3.8,�k��,2.3
2021/07/02,07:50,4.0,�k��,2.2
2021/07/02,08:00,3.9,�k��,2.2
2021/07/02,08:10,3.9,�k��,2.6
2021/07/02,08:20,3.9,�k��,2.0
2021/07/02,08:30,3.7,�k�k��,2.3
2021/07/02,08:40,3.9,�k�k��,1.7
2021/07/02,08:50,3.9,�k�k��,2.2
2021/07/02,09:00,3.8,�k��,2.2
2021/07/02,09:10,3.8,�k��,2.3
2021/07/02,09:20,4.0,�k��,2.0
2021/07/02,09:30,3.8,�k��,1.9
2021/07/02,09:40,3.9,�k��,1.4
2021/07/02,09:50,3.8,�k��,2.0
2021/07/02,10:00,3.9,�k��,1.7
2021/07/02,10:10,3.9,�k��,1.5
2021/07/02,10:20,3.8,���k��,2.2
2021/07/02,10:30,3.8,���k��,2.2
2021/07/02,10:40,3.8,��,2.0
2021/07/02,10:50,3.9,��,2.3
2021/07/02,11:00,3.9,���쓌,2.8
2021/07/02,11:10,3.8,���쓌,2.0
2021/07/02,11:20,3.9,���쓌,2.3
2021/07/02,11:30,3.7,���쓌,1.9
2021/07/02,11:40,3.9,���쓌,2.6
2021/07/02,11:50,4.0,���쓌,1.5
2021/07/02,12:00,3.8,���쓌,2.6
2021/07/02,12:10,3.8,���쓌,2.0
2021/07/02,12:20,4.0,�쓌,2.0
2021/07/02,12:30,4.0,�쓌,1.7
2021/07/02,12:40,4.0,��쓌,1.7
2021/07/02,12:50,3.8,�쓌,2.0
2021/07/02,13:00,3.8,��쓌,2.3
2021/07/02,13:10,3.8,��쓌,2.5
2021/07/02,13:20,4.0,��쓌,1.9
2021/07/02,13:30,3.9,��쓌,2.2
2021/07/02,13:40,3.9,�쓌,1.9
2021/07/02,13:50,3.8,�쓌,1.4
2021/07/02,14:00,3.8,�쓌,0.9
2021/07/02,14:10,3.9,��쓌,1.7
2021/07/02,14:20,3.9,��쓌,2.2
2021/07/02,14:30,3.9,��쓌,1.9
2021/07/02,14:40,3.9,�쓌,1.7
2021/07/02,14:50,3.8,��,1.1
2021/07/02,15:00,4.0,�k��,0.9
2021/07/02,15:10,3.9,�k��,1.7
2021/07/02,15:20,3.8,�k��,2.0
2021/07/02,15:30,4.0,�k��,2.5
2021/07/02,15:40,4.0,�k�k��,2.0
2021/07/02,15:50,3.9,�k��,2.6
2021/07/02,16:00,4.0,�k��,2.3
2021/07/02,16:10,3.8,�k�k��,2.3
2021/07/02,16:20,3.8,�k�k��,2.6
2021/07/02,16:30,4.0,�k�k��,2.3
2021/07/02,16:40,3.8,�k��,2.0
2021/07/02,16:50,3.8,�k��,2.0
2021/07/02,17:00,4.0,�k�k��,2.0
2021/07/02,17:10,4.0,�k�k��,2.8
2021/07/02,17:20,3.9,�k�k��,2.3
2021/07/02,17:30,4.0,�k,2.3
2021/07/02,17:40,3.9,�k�k��,2.6
2021/07/02,17:50,3.9,�k�k��,2.8
2021/07/02,18:00,3.9,�k�k��,2.6
2021/07/02,18:10,4.1,�k�k��,3.3
2021/07/02,18:20,3.8,�k�k��,3.5
2021/07/02,18:30,3.8,�k�k��,3.5
2021/07/02,18:40,4.0,�k�k��,3.2
2021/07/02,18:50,3.8,�k�k��,3.6
2021/07/02,19:00,3.9,�k,3.8
2021/07/02,19:10,3.9,�k,3.8
2021/07/02,19:20,4.0,�k,4.3
2021/07/02,19:30,3.8,�k,5.3
2021/07/02,19:40,3.8,�k,6.2
2021/07/02,19:50,4.0,�k�k��,6.4
2021/07/02,20:00,3.9,�k�k��,7.6
2021/07/02,20:10,3.8,�k,7.4
2021/07/02,20:20,3.8,�k,7.3
2021/07/02,20:30,3.8,�k,7.5
2021/07/02,20:40,3.9,�k,6.7
2021/07/02,20:50,3.8,�k,6.1
2021/07/02,21:00,4.0,�k,5.7
2021/07/02,21:10,3.8,�k,7.0
2021/07/02,21:20,3.9,�k,6.5
2021/07/02,21:30,3.9,�k,5.9
2021/07/02,21:40,4.0,�k,6.1
2021/07/02,21:50,4.0,�k,6.5
2021/07/02,22:00,3.9,�k,6.7
2021/07/02,22:10,3.8,�k,6.7
2021/07/02,22:20,4.0,�k,6.8
2021/07/02,22:30,4.0,�k,6.6
2021/07/02,22:40,3.9,�k�k��,5.6
2021/07/02,22:50,3.9,�k�k��,5.2
2021/07/02,23:00,3.9,�k�k��,5.1
2021/07/02,23:10,3.9,�k�k��,6.6
2021/07/02,23:20,4.0,�k�k��,5.9
2021/07/02,23:30,3.9,�k�k��,5.5
2021/07/02,23:40,3.8,�k�k��,6.1
2021/07/02,23:50,3.9,�k�k��,6.4
